Total_Precipitation_Accumulation
0.09 0.12 0.25 0.23 0.19 0.22 0.26 0.24 0.21 0.19 0.19 0.20 0.19 0.17 0.17 0.20 0.17 0.14 0.15 0.20 0.28 0.33 0.34 0.37 0.46 0.52 0.51 0.51 0.50 0.43 0.40 0.45 0.49 0.54 0.50 0.51 0.62 0.76 1.00 1.11 1.09 0.77 0.66
0.06 0.12 0.23 0.24 0.20 0.21 0.22 0.22 0.19 0.19 0.17 0.15 0.16 0.18 0.21 0.20 0.20 0.16 0.15 0.18 0.24 0.28 0.29 0.29 0.33 0.43 0.47 0.46 0.46 0.38 0.37 0.42 0.51 0.57 0.52 0.45 0.61 0.84 1.03 1.03 1.13 0.76 0.67
0.09 0.09 0.14 0.20 0.18 0.16 0.15 0.16 0.19 0.19 0.16 0.14 0.16 0.18 0.19 0.19 0.18 0.18 0.19 0.18 0.20 0.24 0.26 0.25 0.28 0.32 0.34 0.40 0.43 0.41 0.40 0.41 0.52 0.64 0.82 0.58 0.43 0.82 0.96 0.94 0.85 0.64 0.57
0.11 0.09 0.10 0.15 0.15 0.13 0.12 0.13 0.17 0.18 0.14 0.14 0.20 0.21 0.16 0.18 0.21 0.20 0.21 0.19 0.21 0.19 0.20 0.22 0.27 0.24 0.25 0.30 0.29 0.36 0.43 0.51 0.69 0.92 1.19 0.73 0.43 0.60 0.80 0.72 0.62 0.54 0.51
0.10 0.09 0.10 0.14 0.14 0.12 0.11 0.11 0.14 0.16 0.14 0.14 0.17 0.18 0.15 0.19 0.22 0.22 0.20 0.21 0.24 0.20 0.15 0.16 0.21 0.19 0.19 0.20 0.22 0.33 0.44 0.54 0.78 1.02 1.02 0.91 0.80 0.66 0.69 0.68 0.64 0.62 0.57
0.06 0.06 0.07 0.12 0.13 0.11 0.11 0.11 0.13 0.15 0.14 0.13 0.13 0.16 0.16 0.22 0.28 0.27 0.22 0.25 0.29 0.27 0.18 0.13 0.14 0.17 0.19 0.18 0.20 0.33 0.43 0.59 0.80 0.73 0.67 0.77 0.83 0.77 0.72 0.83 0.93 0.86 0.75
0.06 0.06 0.08 0.13 0.12 0.10 0.11 0.11 0.12 0.13 0.13 0.11 0.12 0.13 0.14 0.19 0.24 0.27 0.24 0.25 0.25 0.24 0.20 0.17 0.15 0.18 0.23 0.24 0.26 0.35 0.47 0.68 0.80 0.67 0.65 0.80 0.78 0.65 0.77 1.00 1.25 1.17 0.97
0.05 0.05 0.08 0.14 0.13 0.11 0.11 0.12 0.12 0.12 0.12 0.11 0.12 0.12 0.13 0.16 0.20 0.23 0.22 0.21 0.19 0.16 0.15 0.17 0.20 0.22 0.25 0.29 0.30 0.37 0.47 0.52 0.57 0.66 0.63 0.69 0.53 0.55 0.81 1.07 1.27 1.21 1.03
0.13 0.08 0.11 0.13 0.14 0.13 0.14 0.14 0.15 0.13 0.13 0.13 0.13 0.12 0.13 0.15 0.17 0.20 0.21 0.20 0.19 0.19 0.19 0.21 0.22 0.25 0.27 0.31 0.32 0.39 0.51 0.53 0.55 0.73 0.75 0.82 0.69 0.78 1.05 1.21 1.23 1.25 1.11
0.33 0.23 0.23 0.23 0.22 0.19 0.16 0.17 0.20 0.18 0.16 0.16 0.16 0.16 0.16 0.17 0.19 0.22 0.24 0.23 0.23 0.24 0.26 0.28 0.32 0.33 0.33 0.36 0.40 0.49 0.59 0.57 0.61 0.77 0.95 0.82 0.81 1.03 1.33 1.44 1.43 1.41 1.35
0.70 0.54 0.45 0.40 0.32 0.26 0.22 0.22 0.26 0.27 0.26 0.25 0.26 0.25 0.26 0.31 0.37 0.44 0.37 0.42 0.42 0.44 0.46 0.51 0.55 0.55 0.51 0.47 0.57 0.72 0.67 0.66 0.79 0.97 1.06 0.91 0.91 1.18 1.42 1.54 1.58 1.59 1.52
0.95 0.84 0.75 0.69 0.47 0.37 0.37 0.47 0.50 0.46 0.46 0.47 0.58 0.56 0.59 0.70 0.70 0.54 0.60 0.80 0.88 0.99 0.98 1.03 1.09 0.95 0.80 0.74 1.15 1.38 0.80 0.85 0.96 1.15 1.36 1.19 1.22 1.52 1.75 1.63 1.56 1.58 1.51
1.20 0.93 0.90 1.06 0.88 0.73 0.78 0.71 0.67 0.70 0.79 0.81 0.82 0.85 0.97 0.87 0.74 0.73 0.82 1.01 1.18 1.35 1.47 1.78 1.86 1.49 1.47 1.53 1.65 1.60 1.05 0.89 0.96 0.98 1.36 1.43 1.51 1.87 2.16 1.95 1.74 1.64 1.57
1.36 1.03 0.92 1.03 1.17 1.07 0.95 0.92 0.86 0.82 0.90 0.95 1.09 1.12 1.25 1.17 1.09 1.14 1.29 1.40 1.59 1.73 1.99 2.14 2.38 2.17 1.93 1.73 1.67 1.55 1.38 1.31 1.21 1.35 1.67 1.42 1.54 1.93 2.30 2.22 1.98 1.78 1.67
1.62 1.37 1.16 1.11 1.25 1.24 1.17 1.12 1.02 0.98 1.00 1.16 1.31 1.40 1.50 1.55 1.65 1.74 1.67 1.83 1.86 1.97 2.14 2.45 2.50 2.64 2.66 2.57 2.21 1.91 1.83 1.70 1.57 1.70 1.92 1.80 1.60 1.75 2.16 2.44 2.29 2.03 1.86
2.08 1.89 1.59 1.37 1.26 1.29 1.29 1.31 1.35 1.30 1.44 1.56 1.70 1.74 1.91 2.07 2.20 2.36 2.34 2.33 2.15 2.15 2.38 2.62 2.76 3.18 3.07 2.91 2.40 2.17 1.96 1.89 1.69 1.63 1.85 2.04 1.71 1.61 1.85 2.31 2.56 2.42 2.21
2.34 2.31 2.14 1.94 1.86 1.89 2.01 1.96 1.83 1.94 2.03 2.12 2.20 2.20 2.28 2.35 2.51 2.66 2.62 2.50 2.48 2.49 2.63 2.78 2.93 3.04 2.79 2.68 2.52 2.36 2.10 1.91 1.67 1.61 1.69 1.88 1.79 1.63 1.72 1.95 2.30 2.45 2.39
2.44 2.71 2.74 2.57 2.65 2.75 2.85 2.76 2.54 2.52 2.54 2.55 2.51 2.49 2.50 2.57 2.70 2.94 2.75 2.61 2.89 2.78 2.88 3.19 3.18 3.13 2.96 2.81 2.66 2.43 2.22 1.97 1.62 1.53 1.50 1.67 1.94 1.72 1.74 1.91 2.06 2.15 2.41
2.60 3.02 3.19 3.26 3.41 3.41 3.40 3.33 3.26 3.14 2.99 2.76 2.75 2.70 2.52 2.49 2.60 2.82 2.66 2.67 2.80 3.05 3.08 2.87 3.29 3.26 3.12 2.97 2.51 2.28 1.99 1.74 1.56 1.42 1.43 1.47 1.69 1.58 1.57 1.71 1.82 1.92 2.33
3.02 3.35 3.77 3.90 3.96 3.72 3.56 3.49 3.33 3.08 2.87 2.74 2.76 2.63 2.42 2.43 2.46 2.81 2.63 2.56 2.70 2.94 2.90 2.91 3.17 3.15 2.92 2.92 2.39 1.99 1.81 1.50 1.46 1.47 1.31 1.34 1.39 1.22 1.27 1.51 1.93 1.68 1.81
3.54 3.72 3.96 4.32 4.41 4.13 4.03 3.91 3.75 3.38 3.20 2.90 2.60 2.29 2.19 2.17 2.31 2.65 2.43 2.63 2.61 2.65 2.64 2.69 2.94 2.98 2.72 2.80 2.64 2.13 1.61 1.27 1.23 1.26 1.28 1.32 1.22 1.27 1.52 1.74 1.92 1.95 1.82
3.34 3.78 4.05 4.02 3.88 3.58 3.57 3.76 3.94 3.87 3.44 2.89 2.59 2.42 2.13 2.05 2.13 2.28 2.38 2.28 2.36 2.42 2.42 2.48 2.69 2.59 2.31 2.50 2.59 2.49 1.84 1.46 1.13 0.94 1.21 1.27 1.23 1.39 1.49 1.52 1.78 2.06 2.06
2.79 3.22 3.29 3.12 3.01 2.82 2.77 2.98 3.13 3.34 3.18 2.83 2.51 2.30 2.10 1.99 1.95 2.01 2.10 2.12 2.15 2.08 2.15 2.32 2.32 2.29 2.14 2.14 2.33 2.51 2.10 1.64 1.32 0.96 0.87 0.98 1.18 1.33 1.37 1.51 1.51 1.64 1.73
1.93 2.15 2.27 2.31 2.34 2.34 2.31 2.45 2.57 2.71 2.67 2.56 2.48 2.22 1.97 1.75 1.69 1.71 1.72 1.74 1.81 1.83 1.99 1.87 1.90 2.09 2.13 1.98 2.07 2.09 2.02 1.97 1.80 1.27 0.94 0.90 1.11 1.20 1.20 1.18 1.29 1.46 1.57
1.56 1.75 1.90 2.04 2.16 2.27 2.22 2.24 2.40 2.63 2.56 2.35 2.17 2.01 1.88 1.72 1.58 1.51 1.55 1.53 1.53 1.55 1.67 1.69 1.88 1.92 1.96 1.92 1.88 1.86 1.94 1.94 1.80 1.57 1.21 1.09 1.07 0.97 1.02 1.08 1.19 1.40 1.58
1.39 1.55 1.70 1.81 1.84 1.91 1.96 1.93 1.92 2.00 2.03 1.90 1.76 1.69 1.59 1.44 1.37 1.37 1.38 1.37 1.37 1.41 1.54 1.59 1.62 1.63 1.68 1.72 1.68 1.67 1.76 1.70 1.62 1.68 1.42 1.29 1.25 1.04 1.06 1.10 1.14 1.27 1.36